Back to catalog

STARLINK-34668

AliveCommunicationsVLEO
NORAD 64814·PAYLOAD·🇺🇸 United States

Launched Jul 16, 2025 from Vandenberg Space Force Base

Loading…

Next Passes (next 24 hours)

TLE

FreshSource: CelesTrak SupGP

Epoch: Sep 14, 2026, 15:40 UTC

1 64814C 25150AA  26257.65326389  .00008855  00000+0  74196-3 0  2572
2 64814  70.0031  17.9146 0003426 271.8691  98.6470 14.98329305    12

Track STARLINK-34668 in real time with AllMySat

Download on the App Store